Regional Weather Roundup
Issued by NWS Northern Indiana

Home | Current Version | Previous Version | Text Only | Print | Product List | Glossary On
Versions: 1 2 3 4 5 6 7 8 9 10 11 12 13 14 15 16 17 18 19 20 21 22 23 24 25 26 27 28 29 30 31 32 33 34 35 36 37 38 39 40 41 42 43 44 45 46 47 48 49 50
000
ASUS43 KIWX 160610
RWRIWX

KIWX WEATHER ROUNDUP
NATIONAL WEATHER SERVICE NORTHERN INDIANA
100 AM EST SAT DEC 16 2017

NOTE: "FAIR" INDICATES FEW OR NO CLOUDS BELOW 12,000 FEET WITH NO
SIGNIFICANT WEATHER AND/OR OBSTRUCTIONS TO VISIBILITY.

* THESE STATIONS ARE NOT UNDER NWS QUALITY CONTROL. THEY ALSO MAY NOT
  REPORT WEATHER SUCH AS PRECIPITATION OR FOG.

INZ001>027-160700-
NORTHERN INDIANA

CITY           SKY/WX    TMP DP  RH WIND       PRES   REMARKS
GARY*          CLOUDY    39  19  45 SW7G18    29.91F
VALPARAISO     CLOUDY    37  22  54 SW20      29.92S
6HR MIN TEMP:  33; 6HR MAX TEMP:  37;

MICHIGAN CITY* CLOUDY    36  23  60 SW15      29.90F
LAPORTE*       CLOUDY    35  23  62 SW14G21   29.91S WCI  25
6HR MIN TEMP:  30; 6HR MAX TEMP:  35;

KNOX*          CLOUDY    34  23  64 SW15G22   29.92F WCI  24
SOUTH BEND     CLOUDY    32  23  69 SW12      29.90F WCI  23
6HR MIN TEMP:  29; 6HR MAX TEMP:  32; 6HR PCP: TRACE;

GOSHEN         CLOUDY    32  22  66 SW15      29.90F WCI  22
6HR MIN TEMP:  29; 6HR MAX TEMP:  32; 6HR PCP: TRACE;

MONTICELLO*    CLOUDY    34  20  57 SW15G21   29.97S WCI  24
6HR MIN TEMP:  32; 6HR MAX TEMP:  34;

LOGANSPORT*    CLOUDY    34  23  64 SW17      29.97F WCI  23
ROCHESTER*     CLOUDY    36  27  69 SW13G20   29.95S
WARSAW*        CLOUDY    32  23  69 SW10G18   29.92F WCI  24
AUBURN*        CLOUDY    32  21  64 SW7       29.93F WCI  26
FORT WAYNE     CLOUDY    32  24  72 SW16      29.95F WCI  21
6HR MIN TEMP:  29; 6HR MAX TEMP:  32; 6HR PCP: TRACE;

HUNTINGTON*    CLOUDY    32  21  64 SW12G20   29.95F WCI  23
6HR MIN TEMP:  30; 6HR MAX TEMP:  32;

PERU/GRISSOM   CLOUDY    34  22  61 SW21      29.95F WCI  23
6HR MIN TEMP:  31; 6HR MAX TEMP:  34;

MARION*        CLOUDY    33  23  67 SW17      29.99S WCI  22
6HR MIN TEMP:  26; 6HR MAX TEMP:  33;


$$
INZ028>050-160700-
CENTRAL INDIANA

CITY           SKY/WX    TMP DP  RH WIND       PRES   REMARKS
LAFAYETTE      CLOUDY    33  22  63 SW12      29.99F WCI  24
6HR MIN TEMP:  32; 6HR MAX TEMP:  34;

KOKOMO*        CLOUDY    34  22  61 SW20G26   29.98F WCI  23
6HR MIN TEMP:  31; 6HR MAX TEMP:  34;

MUNCIE*        CLOUDY    34  23  64 SW14G22   29.99F WCI  25
6HR MIN TEMP:  31; 6HR MAX TEMP:  34;

INDIANAPOLIS   MOCLDY    31  23  72 SW10      30.04F WCI  22
6HR MIN TEMP:  30; 6HR MAX TEMP:  34;


$$
MIZ043>046-050>051-056>058-064>065-071>073-077>080-160700-
SOUTHWEST LOWER MICHIGAN

CITY           SKY/WX    TMP DP  RH WIND       PRES   REMARKS
BATTLE CREEK   FLURRIES  29  26  89 SW14      29.86F WCI  18
6HR MIN TEMP:  26; 6HR MAX TEMP:  29; 6HR PCP:  0.02;

BENTON HARBOR  CLOUDY    35  25  66 SW8       29.87F WCI  29
6HR MIN TEMP:  33; 6HR MAX TEMP:  36; 6HR PCP: TRACE;

COLDWATER*     FLURRIES  30  24  81 SW8G16    29.89F WCI  22
6HR MIN TEMP:  27; 6HR MAX TEMP:  30;

HILLSDALE*     FLURRIES  28  23  80 SW9G16    29.87F WCI  20
HOLLAND        LGT SNOW  34  31  88 W16       29.85F FOG     WCI  24
6HR MIN TEMP:  32; 6HR MAX TEMP:  35; 6HR PCP:  0.01;

GRAND RAPIDS   LGT SNOW  25  23  92 E3        29.85S VSB 1
6HR MIN TEMP:  22; 6HR MAX TEMP:  26; 6HR PCP:  0.04;

KALAMAZOO      LGT SNOW  29  26  89 SW9       29.87F FOG     WCI  20
6HR MIN TEMP:  27; 6HR MAX TEMP:  30; 6HR PCP:  0.01;

STURGIS*       CLOUDY    31  25  78 SW8       29.88F WCI  23
6HR MIN TEMP:  28; 6HR MAX TEMP:  31;

THREE RIVERS*  CLOUDY    32  25  75 SW6       29.89F WCI  26
6HR MIN TEMP:  29; 6HR MAX TEMP:  32;


$$
OHZ001>008-015>018-024>025-160700-
NORTHWEST OHIO

CITY           SKY/WX    TMP DP  RH WIND       PRES   REMARKS
WAUSEON*       CLOUDY    30  25  80 SW15      29.92F WCI  19
DEFIANCE       CLOUDY    30  21  69 SW10      29.94F WCI  21
6HR MIN TEMP:  27; 6HR MAX TEMP:  30; 6HR PCP: TRACE;

FINDLAY        CLOUDY    30  20  66 SW17      29.96F WCI  18
6HR MIN TEMP:  25; 6HR MAX TEMP:  31;

TOLEDO EXPRESS CLOUDY    30  23  75 SW14      29.93S WCI  19
6HR MIN TEMP:  26; 6HR MAX TEMP:  30; 6HR PCP: TRACE;

TOLEDO METCALF CLOUDY    30  22  72 SW17      29.94F WCI  18
6HR MIN TEMP:  24; 6HR MAX TEMP:  30;

LIMA           CLOUDY    30  22  72 SW14      29.97F WCI  19
6HR MIN TEMP:  26; 6HR MAX TEMP:  30;


$$
AND FOR LAKE MICHIGAN COASTAL AND OPEN LAKE BUOY OBSERVATIONS

STATION/POSITION TEMP    WIND        PRES    VSBY  WAVE
                 AIR SEA DIR/SP/G                  HT/PER
                 (F)     (DEG/KT/KT) (MB)    (MI)  (FT/S)
CALUMET HARBOR    37     210/ 11/ 16 1011.7F
MICHIGAN CITY     37     210/ 23/ 26   N/A
BURNS HARBOR      37     220/ 17/ 22 1012.9F
SAINT JOSEPH      38     220/ 20/ 25 1011.5

$$
&&




USA.gov is the U.S. government's official web portal to all federal, state and local government web resources and services.